{"data":{"norad_id":61591,"intl_designator":"2024-187T","name":"STARLINK-32409","alt_names":[],"object_type":"PAYLOAD","status":"ACTIVE","operator":null,"country":"US","launch_date":"2024-10-18","launch_site_code":"AFETR","launch_vehicle":null,"mission":null,"orbit_class":"UNKNOWN","rcs_meters":null,"size_class":null,"mass_kg":null,"dimensions":null,"purposes":["comms"],"wikipedia_slug":null,"has_3d_model":false,"image_url":null,"decayed_at":null,"tle_current":{"epoch":"2026-09-21T04:06:32.517216Z","epoch_age_seconds":134117,"freshness":"FRESH","line1":"1 61591U 24187T   26264.17120969  .00000307  00000+0  20238-4 0  9997","line2":"2 61591  53.1613 218.5111 0001792  82.9898 277.1309 15.34399625109270","mean_motion":15.34399625,"eccentricity":0.0001792,"inclination_deg":53.1613,"raan_deg":218.5111,"arg_perigee_deg":82.9898,"mean_anomaly_deg":277.1309,"bstar":2.0238e-5,"rev_number":10927,"period_min":93.847781017282,"perigee_km":461.47847601558,"apogee_km":463.93023355714,"semimajor_km":6840.8413547864,"source":"CELESTRAK","updated_at":"2026-09-22T09:00:49.393916Z"}}}